EW1799 Weather Reports


Display with metric or nautical units.
time (UTC)temp
F
wind
direction
speed
MPH
gust
MPH
rain 1hr
in
rain 24hr
in
rain mn
in
humidity
%
barometer
mb
20210620164532 65 191 0.0 7.0 0.00 0.01 0.00 46 1001.0
20210620163010 63 65 1.0 8.0 0.00 0.01 0.00 47 1001.1
20210620161516 63 27 2.0 5.0 0.00 0.01 0.00 45 1000.9
20210620160006 63 16 3.0 8.0 0.00 0.01 0.00 45 1000.9
20210620154504 62 47 2.0 7.0 0.00 0.01 0.00 46 1001.0
20210620153307 62 42 1.0 7.0 0.00 0.01 0.00 47 1001.2
20210620151608 63 25 1.0 5.0 0.00 0.01 0.00 46 1001.3
20210620150205 63 88 1.0 5.0 0.00 0.01 0.00 48 1001.2
20210620144934 62 83 0.0 5.0 0.00 0.01 0.00 51 1001.2
20210620143058 61 88 3.0 8.0 0.00 0.01 0.00 52 1001.1
20210620141621 60 26 5.0 13.0 0.00 0.01 0.00 49 1001.1
20210620140114 60 5 4.0 12.0 0.00 0.01 0.00 49 1000.9
20210620134600 59 39 2.0 7.0 0.00 0.01 0.00 54 1000.7
20210620133046 59 41 3.0 10.0 0.00 0.01 0.00 55 1000.6
20210620131527 64 17 0.0 9.0 0.00 0.01 0.00 45 1000.6
20210620130043 67 283 0.0 2.0 0.00 0.01 0.00 32 1000.2
20210620124519 66 255 0.0 6.0 0.00 0.01 0.00 31 999.9
20210620123049 67 244 1.0 10.0 0.00 0.01 0.00 31 999.8
20210620121510 67 275 0.0 4.0 0.00 0.01 0.00 30 999.7
20210620120016 67 290 1.0 4.0 0.00 0.01 0.00 29 999.4
20210620114506 66 278 1.0 5.0 0.00 0.01 0.00 30 999.1
20210620113003 65 273 1.0 13.0 0.00 0.01 0.00 31 999.1
20210620111518 65 233 3.0 8.0 0.00 0.01 0.00 32 999.1
20210620110002 67 246 3.0 8.0 0.00 0.01 0.00 30 998.9
20210620103204 67 283 2.0 7.0 0.00 0.01 0.00 29 998.6
20210620101720 66 298 2.0 6.0 0.00 0.01 0.00 30 998.4
20210620100210 63 272 0.0 8.0 0.00 0.01 0.00 34 998.5
20210620094631 63 231 3.0 13.0 0.00 0.01 0.00 34 998.7
20210620093302 63 234 3.0 11.0 0.00 0.01 0.00 34 998.9
20210620091722 64 246 3.0 9.0 0.00 0.01 0.00 33 999.0
20210620084604 65 255 2.0 10.0 0.00 0.01 0.00 33 999.2
20210620083116 65 245 0.0 1.0 0.00 0.01 0.00 31 999.3
20210620081622 67 246 1.0 8.0 0.00 0.01 0.00 30 999.3
20210620080147 68 242 0.0 5.0 0.00 0.01 0.00 28 999.4
20210620074609 68 272 2.0 7.0 0.00 0.01 0.00 28 999.4
20210620073105 69 308 1.0 5.0 0.00 0.01 0.00 27 999.3
20210620071559 69 295 0.0 6.0 0.00 0.01 0.00 27 999.1
20210620070119 70 290 1.0 6.0 0.00 0.01 0.00 27 999.0
20210620064601 70 283 0.0 10.0 0.00 0.01 0.00 27 999.0
20210620063043 70 277 1.0 12.0 0.00 0.01 0.00 27 998.7
20210620061544 70 292 2.0 14.0 0.00 0.01 0.00 27 998.7
20210620060049 69 302 4.0 10.0 0.00 0.01 0.01 28 998.4
20210620054541 68 294 2.0 7.0 0.00 0.01 0.01 29 998.5
20210620053030 68 292 4.0 11.0 0.00 0.01 0.01 30 998.4
20210620051538 67 313 3.0 10.0 0.00 0.01 0.01 30 998.6
20210620050055 64 290 0.0 4.0 0.00 0.01 0.01 36 998.8
20210620044557 65 175 0.0 1.0 0.00 0.01 0.01 36 999.1
20210620043144 65 167 0.0 1.0 0.00 0.01 0.01 37 999.2
20210620041530 65 183 0.0 0.0 0.00 0.01 0.01 40 999.3
20210620040055 65 196 0.0 0.0 0.00 0.01 0.01 42 999.0
20210620034557 65 188 0.0 0.0 0.00 0.01 0.01 42 999.0
20210620033059 66 106 0.0 1.0 0.00 0.01 0.01 39 998.5
20210620031534 68 103 0.0 5.0 0.00 0.01 0.01 40 998.5
20210620030116 68 306 1.0 11.0 0.00 0.01 0.01 34 998.0
20210620024548 68 253 7.0 27.0 0.00 0.01 0.01 34 997.6
20210620023038 68 261 6.0 18.0 0.00 0.01 0.01 36 997.6
20210620021603 67 265 5.0 17.0 0.00 0.01 0.01 39 998.1
20210620020048 68 277 2.0 17.0 0.00 0.01 0.01 39 998.5
20210620014524 68 277 9.0 27.0 0.00 0.01 0.01 39 998.6
20210620013052 68 273 12.0 24.0 0.00 0.01 0.01 38 998.5
20210620010044 70 267 2.0 15.0 0.00 0.01 0.01 36 998.5
20210620004543 69 286 0.0 8.0 0.00 0.01 0.01 40 998.2
20210620003043 70 281 0.0 15.0 0.00 0.01 0.01 40 998.6
20210620001509 70 268 5.0 13.0 0.00 0.01 0.01 39 998.7
20210620000010 69 284 8.0 20.0 0.00 0.01 0.01 39 998.7
20210619234511 67 244 4.0 15.0 0.00 0.01 0.01 43 998.9
20210619233009 65 310 6.0 22.0 0.00 0.01 0.01 45 998.9
20210619231505 63 264 10.0 20.0 0.01 0.01 0.01 54 999.8
20210619230003 61 250 0.0 0.0 0.01 0.01 0.01 77 1000.6
20210619224756 60 322 0.0 5.0 0.01 0.01 0.01 75 1000.2
20210619223221 63 21 5.0 14.0 0.01 0.01 0.01 69 1000.0
20210619221656 67 25 5.0 16.0 0.00 0.00 0.00 57 999.4
20210619220128 72 22 5.0 15.0 0.00 0.00 0.00 43 998.8
20210619214604 73 45 2.0 8.0 0.00 0.00 0.00 45 999.2
20210619213116 72 86 1.0 7.0 0.00 0.00 0.00 45 999.7
20210619211658 74 93 0.0 3.0 0.00 0.00 0.00 38 999.9
20210619210155 77 149 0.0 4.0 0.00 0.00 0.00 34 999.6
20210619204631 77 144 0.0 4.0 0.00 0.00 0.00 31 999.7
20210619203228 77 100 1.0 6.0 0.00 0.00 0.00 33 999.7
20210619201620 75 202 0.0 6.0 0.00 0.00 0.00 33 1000.0
20210619200218 72 211 0.0 2.0 0.00 0.00 0.00 37 1000.4
20210619194546 72 248 0.0 3.0 0.00 0.00 0.00 31 1000.4
20210619193251 72 271 3.0 21.0 0.00 0.00 0.00 34 1000.3
20210619190139 74 86 0.0 8.0 0.00 0.00 0.00 45 1000.3
20210619184619 77 61 3.0 8.0 0.00 0.00 0.00 43 1000.1
20210619183101 77 84 0.0 5.0 0.00 0.00 0.00 42 1000.2
20210619181626 77 53 4.0 7.0 0.00 0.00 0.00 40 1000.5
20210619180204 75 77 0.0 7.0 0.00 0.00 0.00 47 1000.7
20210619174600 73 80 0.0 7.0 0.00 0.00 0.00 50 1001.0
20210619173032 73 65 0.0 4.0 0.00 0.00 0.00 51 1001.1
20210619171551 75 94 2.0 7.0 0.00 0.00 0.00 50 1001.0
20210619170056 74 80 3.0 9.0 0.00 0.00 0.00 39 1001.1